GW4915 Weather Reports


time (UTC)temp
C
wind
direction
speed
KPH
gust
KPH
rain 1hr
cm
rain 24hr
cm
rain mn
cm
humidity
%
barometer
mb
20260508215014 17 176 9.7 11.3 0.00 0.00 0.00 55 1006.3
20260508214511 17 198 11.3 14.5 0.00 0.00 0.00 56 1005.9
20260508214007 17 222 4.8 4.8 0.00 0.00 0.00 55 1006.2
20260508213505 18 158 9.7 12.9 0.00 0.00 0.00 51 1006.3
20260508213000 18 311 8.0 9.7 0.00 0.00 0.00 44 1006.2
20260508212457 18 280 1.6 1.6 0.00 0.00 0.00 46 1006.2
20260508211953 18 209 4.8 4.8 0.00 0.00 0.00 46 1006.1
20260508211449 18 213 6.4 8.0 0.00 0.00 0.00 45 1006.3
20260508210946 18 269 4.8 8.0 0.00 0.00 0.00 43 1006.3
20260508210443 18 218 8.0 9.7 0.00 0.00 0.00 41 1006.2
20260508205939 18 220 3.2 4.8 0.00 0.00 0.00 40 1006.3
20260508205436 19 16 6.4 8.0 0.00 0.00 0.00 39 1006.2
20260508204932 18 256 4.8 4.8 0.00 0.00 0.00 39 1006.4
20260508204430 20 259 8.0 14.5 0.00 0.00 0.00 39 1006.5
20260508203925 19 276 4.8 4.8 0.00 0.00 0.00 38 1006.5
20260508203422 19 316 6.4 8.0 0.00 0.00 0.00 39 1006.4
20260508202917 19 264 4.8 4.8 0.00 0.00 0.00 38 1006.6
20260508202415 18 248 6.4 8.0 0.00 0.00 0.00 38 1006.6
20260508201912 18 118 8.0 11.3 0.00 0.00 0.00 39 1006.7
20260508201409 17 168 8.0 11.3 0.00 0.00 0.00 43 1006.9
20260508200905 17 217 1.6 3.2 0.00 0.00 0.00 42 1007.1
20260508200402 17 179 9.7 12.9 0.00 0.00 0.00 43 1007.1
20260508195857 18 244 4.8 4.8 0.00 0.00 0.00 41 1007.4
20260508195355 18 193 11.3 16.1 0.00 0.00 0.00 40 1007.2
20260508194851 18 213 4.8 4.8 0.00 0.00 0.00 40 1007.5
20260508194348 18 301 4.8 4.8 0.00 0.00 0.00 40 1007.4
20260508193845 18 260 3.2 3.2 0.00 0.00 0.00 40 1007.9
20260508193342 17 321 4.8 4.8 0.00 0.00 0.00 40 1007.8
20260508192838 17 217 1.6 3.2 0.00 0.00 0.00 42 1007.7
20260508192335 17 207 4.8 8.0 0.00 0.00 0.00 42 1008.0
20260508191832 18 240 1.6 3.2 0.00 0.00 0.00 39 1008.0
20260508191329 17 189 3.2 3.2 0.00 0.00 0.00 40 1008.2
20260508190827 17 167 6.4 9.7 0.00 0.00 0.00 40 1008.3
20260508190323 17 231 1.6 1.6 0.00 0.00 0.00 41 1008.2
20260508185819 18 311 3.2 3.2 0.00 0.00 0.00 39 1008.3
20260508185317 18 279 0.0 1.6 0.00 0.00 0.00 37 1008.5
20260508184814 18 207 9.7 11.3 0.00 0.00 0.00 36 1008.6
20260508184311 17 241 4.8 4.8 0.00 0.00 0.00 37 1008.4
20260508183808 17 214 6.4 8.0 0.00 0.00 0.00 35 1008.6
20260508183305 17 226 6.4 9.7 0.00 0.00 0.00 37 1008.4
20260508182800 17 322 8.0 12.9 0.00 0.00 0.00 40 1008.7
20260508182257 17 328 3.2 3.2 0.00 0.00 0.00 36 1008.4
20260508181753 17 331 11.3 14.5 0.00 0.00 0.00 40 1008.7
20260508181250 17 289 4.8 4.8 0.00 0.00 0.00 39 1008.7
20260508180747 17 276 6.4 9.7 0.00 0.00 0.00 40 1008.7
20260508180244 17 221 4.8 4.8 0.00 0.00 0.00 42 1009.1
20260508175740 16 79 6.4 8.0 0.00 0.00 0.00 41 1009.3
20260508175237 16 277 1.6 1.6 0.00 0.00 0.00 40 1009.2
20260508174735 16 272 9.7 12.9 0.00 0.00 0.00 42 1009.3
20260508174232 16 328 9.7 12.9 0.00 0.00 0.00 42 1009.4
20260508173728 16 180 4.8 4.8 0.00 0.00 0.00 40 1009.5
20260508173224 16 243 3.2 3.2 0.00 0.00 0.00 41 1009.5
20260508172721 15 336 3.2 8.0 0.00 0.00 0.00 42 1009.7
20260508172218 16 270 6.4 9.7 0.00 0.00 0.00 41 1009.9
20260508171715 16 269 3.2 4.8 0.00 0.00 0.00 42 1010.1
20260508171211 16 192 8.0 11.3 0.00 0.00 0.00 42 1009.8
20260508170708 16 280 0.0 1.6 0.00 0.00 0.00 40 1009.9
20260508170206 16 195 8.0 9.7 0.00 0.00 0.00 44 1010.1
20260508165702 16 300 3.2 3.2 0.00 0.00 0.00 41 1010.2
20260508165200 15 78 3.2 3.2 0.00 0.00 0.00 41 1010.5
20260508164656 15 286 6.4 11.3 0.00 0.00 0.00 43 1010.3
20260508164152 16 251 4.8 4.8 0.00 0.00 0.00 42 1010.5
20260508163651 16 269 4.8 4.8 0.00 0.00 0.00 44 1010.6
20260508163148 15 278 0.0 1.6 0.00 0.00 0.00 43 1010.4
20260508162643 15 247 1.6 1.6 0.00 0.00 0.00 43 1010.8
20260508162141 15 139 1.6 3.2 0.00 0.00 0.00 43 1010.8
20260508161637 15 336 9.7 11.3 0.00 0.00 0.00 43 1011.0
20260508161135 14 317 3.2 4.8 0.00 0.00 0.00 46 1010.9
20260508160633 14 252 1.6 1.6 0.00 0.00 0.00 45 1010.9
20260508160130 15 146 1.6 3.2 0.00 0.00 0.00 45 1010.9
20260508155627 15 72 9.7 11.3 0.00 0.00 0.00 45 1011.1
20260508155124 15 275 1.6 1.6 0.00 0.00 0.00 46 1010.9
20260508154621 14 242 3.2 3.2 0.00 0.00 0.00 47 1011.1
20260508154118 15 169 1.6 3.2 0.00 0.00 0.00 46 1011.0
20260508153615 13 203 4.8 4.8 0.00 0.00 0.00 49 1011.1
20260508153111 14 59 4.8 4.8 0.00 0.00 0.00 47 1011.1
20260508152608 14 169 6.4 8.0 0.00 0.00 0.00 47 1011.4
20260508152103 13 324 1.6 1.6 0.00 0.00 0.00 46 1011.3
20260508151601 13 309 1.6 1.6 0.00 0.00 0.00 50 1011.2
20260508151058 13 235 3.2 3.2 0.00 0.00 0.00 52 1011.4
20260508150555 13 218 1.6 3.2 0.00 0.00 0.00 48 1011.4
20260508150050 13 212 3.2 3.2 0.00 0.00 0.00 51 1011.4
20260508145547 13 252 0.0 0.0 0.00 0.00 0.00 53 1011.5
20260508145044 12 169 3.2 3.2 0.00 0.00 0.00 55 1011.7
20260508144542 13 239 4.8 4.8 0.00 0.00 0.00 52 1011.6
20260508144039 13 169 4.8 4.8 0.00 0.00 0.00 53 1011.6
20260508143536 12 224 3.2 3.2 0.00 0.00 0.00 55 1011.6
20260508143032 12 309 0.0 0.0 0.00 0.00 0.00 56 1011.6
20260508142530 12 334 3.2 4.8 0.00 0.00 0.00 56 1011.7
20260508142026 12 234 1.6 3.2 0.00 0.00 0.00 56 1012.0
20260508141522 12 252 3.2 4.8 0.00 0.00 0.00 58 1012.0
20260508141020 11 241 3.2 3.2 0.00 0.00 0.00 59 1011.7
20260508140518 11 257 1.6 1.6 0.00 0.00 0.00 60 1011.8
20260508140014 12 266 0.0 1.6 0.00 0.00 0.00 62 1012.0
20260508135509 12 231 0.0 1.6 0.00 0.00 0.00 63 1012.2
20260508135006 12 349 1.6 1.6 0.00 0.00 0.00 63 1012.0
20260508134502 11 275 0.0 0.0 0.00 0.00 0.00 65 1012.0
20260508134000 11 86 3.2 3.2 0.00 0.00 0.00 64 1012.0
20260508133457 11 214 1.6 1.6 0.00 0.00 0.00 67 1012.0
20260508132953 11 258 1.6 3.2 0.00 0.00 0.00 66 1012.1
20260508132452 11 264 0.0 0.0 0.00 0.00 0.00 66 1012.1
20260508131948 11 267 0.0 0.0 0.00 0.00 0.00 69 1012.2
20260508131443 10 302 1.6 1.6 0.00 0.00 0.00 70 1012.3
20260508130940 10 254 1.6 1.6 0.00 0.00 0.00 69 1012.1
20260508130438 10 0 1.6 1.6 0.00 0.00 0.00 71 1012.2
20260508125933 10 159 4.8 4.8 0.00 0.00 0.00 72 1012.1
20260508125429 10 251 3.2 3.2 0.00 0.00 0.00 71 1012.1
20260508124927 10 242 3.2 3.2 0.00 0.00 0.00 72 1012.0
20260508124425 10 238 3.2 3.2 0.00 0.00 0.00 73 1011.8
20260508123922 10 264 1.6 1.6 0.00 0.00 0.00 73 1011.9
20260508123421 9 157 3.2 3.2 0.00 0.00 0.00 73 1011.8
20260508122917 10 266 0.0 0.0 0.00 0.00 0.00 73 1011.9
20260508122414 10 242 1.6 1.6 0.00 0.00 0.00 74 1012.0
20260508121911 9 287 0.0 0.0 0.00 0.00 0.00 78 1012.0
20260508121409 8 288 0.0 0.0 0.00 0.00 0.00 80 1011.9
20260508120906 8 293 0.0 0.0 0.00 0.00 0.00 83 1012.0
20260508120404 8 306 1.6 1.6 0.00 0.00 0.00 86 1011.7
20260508115901 7 293 0.0 0.0 0.00 0.00 0.00 88 1011.7
20260508115359 7 292 0.0 0.0 0.00 0.00 0.00 90 1011.5
20260508114855 7 289 0.0 0.0 0.00 0.00 0.00 91 1011.6
20260508114352 6 288 0.0 0.0 0.00 0.00 0.00 92 1011.6
20260508113849 6 290 0.0 0.0 0.00 0.00 0.00 92 1011.3
20260508113347 5 292 0.0 0.0 0.00 0.00 0.00 93 1011.5
20260508112844 5 292 0.0 0.0 0.00 0.00 0.00 93 1011.5
20260508112341 5 291 0.0 0.0 0.00 0.00 0.00 93 1011.5
20260508111837 5 292 0.0 0.0 0.00 0.00 0.00 93 1011.3
20260508111334 4 292 0.0 0.0 0.00 0.00 0.00 93 1011.5
20260508110831 4 292 0.0 0.0 0.00 0.00 0.00 93 1011.4
20260508110329 4 298 0.0 0.0 0.00 0.00 0.00 92 1011.5
20260508105829 4 312 0.0 0.0 0.00 0.00 0.00 92 1011.3
20260508105326 3 290 0.0 0.0 0.00 0.00 0.00 92 1011.5
20260508104823 3 289 0.0 0.0 0.00 0.00 0.00 92 1011.3
20260508104319 3 294 0.0 0.0 0.00 0.00 0.00 92 1011.5
20260508103817 3 276 0.0 0.0 0.00 0.00 0.00 92 1011.5
20260508103313 3 274 0.0 0.0 0.00 0.00 0.00 92 1011.2
20260508102811 3 265 0.0 0.0 0.00 0.00 0.00 92 1011.2
20260508102309 3 291 0.0 0.0 0.00 0.00 0.00 91 1011.3
20260508101806 3 301 0.0 0.0 0.00 0.00 0.00 91 1011.1
20260508101303 4 293 0.0 0.0 0.00 0.00 0.00 91 1011.1
20260508100801 4 309 1.6 3.2 0.00 0.00 0.00 91 1011.3
20260508100259 4 317 1.6 1.6 0.00 0.00 0.00 91 1011.1
20260508095754 4 278 1.6 1.6 0.00 0.00 0.00 91 1011.2
20260508095252 4 267 0.0 1.6 0.00 0.00 0.00 91 1010.9
20260508094749 4 278 0.0 0.0 0.00 0.00 0.00 90 1011.3
20260508094246 4 280 0.0 0.0 0.00 0.00 0.00 90 1011.1
20260508093743 4 287 0.0 0.0 0.00 0.00 0.00 89 1011.0
20260508093241 4 293 0.0 0.0 0.00 0.00 0.00 89 1011.3
20260508092737 4 303 0.0 1.6 0.00 0.00 0.00 89 1011.1
20260508092236 5 304 1.6 1.6 0.00 0.00 0.00 89 1011.2
20260508091733 5 298 0.0 0.0 0.00 0.00 0.00 88 1011.1
20260508091230 5 294 0.0 0.0 0.00 0.00 0.00 88 1010.9
20260508090728 5 295 0.0 0.0 0.00 0.00 0.00 88 1011.1
20260508090225 5 293 0.0 0.0 0.00 0.00 0.00 87 1011.2
20260508085721 5 292 0.0 0.0 0.00 0.00 0.00 87 1011.3
20260508085219 5 296 0.0 0.0 0.00 0.00 0.00 86 1011.3
20260508084714 5 299 0.0 0.0 0.00 0.00 0.00 86 1011.3
20260508084212 5 293 0.0 0.0 0.00 0.00 0.00 86 1011.2
20260508083709 5 303 0.0 1.6 0.00 0.00 0.00 85 1011.1
20260508083207 5 285 0.0 0.0 0.00 0.00 0.00 85 1011.5
20260508082701 5 288 0.0 0.0 0.00 0.00 0.00 84 1011.2
20260508082159 6 293 0.0 0.0 0.00 0.00 0.00 84 1011.2
20260508081656 6 297 0.0 0.0 0.00 0.00 0.00 83 1011.3
20260508081153 6 290 0.0 0.0 0.00 0.00 0.00 82 1011.4
20260508080650 6 291 0.0 0.0 0.00 0.00 0.00 82 1011.5
20260508080149 6 293 0.0 0.0 0.00 0.00 0.00 82 1011.3
20260508075644 6 323 1.6 1.6 0.00 0.00 0.00 81 1011.4
20260508075142 6 277 0.0 0.0 0.00 0.00 0.00 81 1011.2
20260508074639 6 280 0.0 0.0 0.00 0.00 0.00 81 1011.4
20260508074136 6 280 0.0 0.0 0.00 0.00 0.00 81 1011.5
20260508073633 6 287 0.0 0.0 0.00 0.00 0.00 81 1011.6
20260508073131 6 311 1.6 1.6 0.00 0.00 0.00 81 1011.5
20260508072627 6 289 0.0 1.6 0.00 0.00 0.00 81 1011.7
20260508072124 6 284 0.0 0.0 0.00 0.00 0.00 80 1011.7
20260508071621 6 291 0.0 0.0 0.00 0.00 0.00 80 1011.6
20260508071120 6 294 0.0 0.0 0.00 0.00 0.00 80 1011.3
20260508070617 6 293 0.0 1.6 0.00 0.00 0.00 80 1011.4
20260508070115 6 285 0.0 0.0 0.00 0.00 0.00 80 1011.6
20260508065612 6 279 0.0 0.0 0.00 0.00 0.00 79 1011.4
20260508065110 6 278 0.0 0.0 0.00 0.00 0.00 79 1011.4
20260508064607 6 277 0.0 0.0 0.00 0.00 0.00 79 1011.2
20260508064105 6 291 0.0 0.0 0.00 0.00 0.00 79 1011.3
20260508063603 6 290 0.0 0.0 0.00 0.00 0.00 78 1011.3
20260508063101 6 290 0.0 0.0 0.00 0.00 0.00 78 1011.4
20260508062558 6 290 0.0 0.0 0.00 0.00 0.00 78 1011.2
20260508062054 6 290 0.0 0.0 0.00 0.00 0.00 77 1011.2
20260508061552 6 290 0.0 0.0 0.00 0.00 0.00 76 1011.4
20260508061048 6 288 0.0 0.0 0.00 0.00 0.00 75 1011.3
20260508060545 7 290 0.0 0.0 0.00 0.00 0.00 75 1011.6
20260508060043 7 289 0.0 0.0 0.00 0.00 0.00 74 1011.5
20260508055538 7 288 0.0 0.0 0.00 0.00 0.00 74 1011.7
20260508055036 7 281 0.0 0.0 0.00 0.00 0.00 73 1011.6
20260508054532 7 266 0.0 0.0 0.00 0.00 0.00 73 1011.7
20260508054029 7 280 0.0 0.0 0.00 0.00 0.00 72 1011.8
20260508053526 7 297 0.0 1.6 0.00 0.00 0.00 71 1011.6
20260508053025 7 291 0.0 0.0 0.00 0.00 0.00 71 1011.7
20260508052521 7 302 1.6 1.6 0.00 0.00 0.00 70 1011.8
20260508052018 8 290 0.0 0.0 0.00 0.00 0.00 69 1011.7
20260508051514 8 290 0.0 0.0 0.00 0.00 0.00 68 1011.6
20260508051009 8 290 0.0 0.0 0.00 0.00 0.00 67 1011.7
20260508050506 8 279 0.0 0.0 0.00 0.00 0.00 67 1011.6
20260508050003 8 274 0.0 0.0 0.00 0.00 0.00 66 1011.8
20260508045500 9 275 0.0 0.0 0.00 0.00 0.00 65 1011.6
20260508044957 9 314 3.2 3.2 0.00 0.00 0.00 64 1011.9
20260508044454 10 309 3.2 3.2 0.00 0.00 0.00 64 1011.6
20260508043949 10 311 3.2 3.2 0.00 0.00 0.00 63 1011.6
20260508043447 10 274 3.2 4.8 0.00 0.00 0.00 63 1011.6
20260508042943 10 276 1.6 1.6 0.00 0.00 0.00 62 1011.6
20260508042441 10 236 1.6 1.6 0.00 0.00 0.00 62 1011.5
20260508041938 10 207 4.8 4.8 0.00 0.00 0.00 61 1011.2
20260508041434 10 242 1.6 1.6 0.00 0.00 0.00 60 1011.3
20260508040931 10 228 3.2 3.2 0.00 0.00 0.00 59 1011.3
20260508040429 10 248 1.6 1.6 0.00 0.00 0.00 59 1011.4
20260508035926 10 266 0.0 0.0 0.00 0.00 0.00 59 1011.4
20260508035423 10 265 0.0 1.6 0.00 0.00 0.00 59 1011.2
20260508034919 10 261 1.6 1.6 0.00 0.00 0.00 59 1011.3
20260508034417 10 261 0.0 1.6 0.00 0.00 0.00 58 1011.3
20260508033913 10 266 0.0 0.0 0.00 0.00 0.00 58 1011.4
20260508033412 10 265 1.6 3.2 0.00 0.00 0.00 57 1011.3
20260508032909 10 269 0.0 1.6 0.00 0.00 0.00 56 1011.1
20260508032406 10 265 0.0 0.0 0.00 0.00 0.00 57 1011.2
20260508031903 11 235 1.6 3.2 0.00 0.00 0.00 55 1011.4
20260508031400 10 269 1.6 1.6 0.00 0.00 0.00 56 1011.5
20260508030855 11 274 0.0 0.0 0.00 0.00 0.00 55 1011.8
20260508030353 11 279 1.6 1.6 0.00 0.00 0.00 56 1011.6
20260508025850 10 262 3.2 4.8 0.00 0.00 0.00 56 1011.6
20260508025347 10 292 0.0 0.0 0.00 0.00 0.00 56 1011.6
20260508024844 10 273 1.6 1.6 0.00 0.00 0.00 57 1011.5
20260508024340 11 297 4.8 4.8 0.00 0.00 0.00 56 1011.7
20260508023837 11 317 4.8 4.8 0.00 0.00 0.00 54 1011.7
20260508023334 11 322 4.8 4.8 0.00 0.00 0.00 54 1011.8
20260508022831 11 221 6.4 8.0 0.00 0.00 0.00 53 1011.7
20260508022326 11 254 8.0 9.7 0.00 0.00 0.00 51 1011.6
20260508021824 11 278 0.0 0.0 0.00 0.00 0.00 51 1011.4
20260508021319 11 259 4.8 4.8 0.00 0.00 0.00 50 1011.5
20260508020816 11 264 3.2 3.2 0.00 0.00 0.00 50 1011.3
20260508020314 11 302 1.6 1.6 0.00 0.00 0.00 51 1011.4
20260508015810 11 301 1.6 1.6 0.00 0.00 0.00 51 1011.5
20260508015308 11 262 0.0 0.0 0.00 0.00 0.00 51 1011.4
20260508014805 11 274 0.0 0.0 0.00 0.00 0.00 51 1011.4
20260508014302 10 288 0.0 0.0 0.00 0.00 0.00 51 1011.3
20260508013757 11 280 0.0 0.0 0.00 0.00 0.00 51 1011.3
20260508013254 11 270 0.0 0.0 0.00 0.00 0.00 50 1011.0
20260508012751 11 284 0.0 0.0 0.00 0.00 0.00 49 1011.0
20260508012248 11 315 3.2 3.2 0.00 0.00 0.00 49 1010.8
20260508011746 11 297 1.6 1.6 0.00 0.00 0.00 49 1010.9
20260508011243 11 293 1.6 1.6 0.00 0.00 0.00 48 1010.5
20260508010740 11 295 3.2 3.2 0.00 0.00 0.00 48 1010.8
20260508010238 11 293 6.4 8.0 0.00 0.00 0.00 48 1010.6
20260508005735 11 312 1.6 3.2 0.00 0.00 0.00 47 1010.6
20260508005232 11 274 0.0 1.6 0.00 0.00 0.00 47 1010.5
20260508004727 11 280 4.8 8.0 0.00 0.00 0.00 47 1010.7
20260508004224 11 308 6.4 9.7 0.00 0.00 0.00 46 1010.8
20260508003720 11 238 4.8 4.8 0.00 0.00 0.00 47 1010.5
20260508003218 12 261 1.6 1.6 0.00 0.00 0.00 45 1010.4
20260508002714 11 275 1.6 1.6 0.00 0.00 0.00 45 1010.4
20260508002212 11 282 4.8 8.0 0.00 0.00 0.00 46 1010.4
20260508001707 12 280 3.2 3.2 0.00 0.00 0.00 45 1010.4
20260508001203 12 277 3.2 3.2 0.00 0.00 0.00 44 1010.6
20260508000700 12 282 4.8 8.0 0.00 0.00 0.00 44 1010.4
20260508000157 12 227 3.2 3.2 0.00 0.00 0.00 45 1010.4
20260507235653 12 321 4.8 4.8 0.00 0.00 0.00 43 1010.5
20260507235151 12 335 4.8 4.8 0.00 0.00 0.00 43 1010.4
20260507234648 12 278 1.6 3.2 0.00 0.00 0.00 43 1010.4
20260507234144 12 285 0.0 0.0 0.00 0.00 0.00 43 1010.3
20260507233641 12 311 3.2 4.8 0.00 0.00 0.00 42 1010.3
20260507233140 12 264 1.6 3.2 0.00 0.00 0.00 42 1010.2
20260507232636 12 284 4.8 8.0 0.00 0.00 0.00 42 1010.3
20260507232133 12 252 4.8 4.8 0.00 0.00 0.00 42 1010.4
20260507231629 12 263 6.4 9.7 0.00 0.00 0.00 42 1010.3
20260507231126 12 324 4.8 8.0 0.00 0.00 0.00 42 1010.3
20260507230622 12 295 3.2 3.2 0.00 0.00 0.00 42 1010.5
20260507230120 12 216 3.2 3.2 0.00 0.00 0.00 42 1010.5
20260507225614 12 268 4.8 4.8 0.00 0.00 0.00 42 1010.4
20260507225111 13 287 3.2 3.2 0.00 0.00 0.00 41 1010.3
20260507224607 13 314 9.7 12.9 0.00 0.00 0.00 40 1010.3
20260507224104 13 331 4.8 9.7 0.00 0.00 0.00 40 1010.4
20260507223600 13 298 8.0 9.7 0.00 0.00 0.00 40 1010.6
20260507223057 14 319 11.3 12.9 0.00 0.00 0.00 39 1010.7
20260507222554 13 292 4.8 8.0 0.00 0.00 0.00 40 1010.7
20260507222050 13 179 4.8 8.0 0.00 0.00 0.00 39 1010.6
20260507221547 13 289 4.8 4.8 0.00 0.00 0.00 42 1010.4
20260507221044 13 351 14.5 20.9 0.00 0.00 0.00 40 1010.6
20260507220541 13 302 3.2 4.8 0.00 0.00 0.00 40 1010.4
20260507220038 13 308 8.0 12.9 0.00 0.00 0.00 39 1010.5
20260507215534 12 342 11.3 14.5 0.00 0.00 0.00 41 1010.5